Weather reports worldwide

Advertisment
Calvi, France (7754): temperature & dewpoint: 20.03.2019 08:00:00 - 26.03.2019 08:00:00 (CET)Calvi, France (7754): temperature 5cm: 20.03.2019 08:00:00 - 26.03.2019 08:00:00 (CET)Calvi, France (7754): wind speed & gusts: 20.03.2019 08:00:00 - 26.03.2019 08:00:00 (CET)Calvi, France (7754): wind direction: 20.03.2019 08:00:00 - 26.03.2019 08:00:00 (CET)Calvi, France (7754): reduced air pressure: 20.03.2019 08:00:00 - 26.03.2019 08:00:00 (CET)Calvi, France (7754): visibility: 20.03.2019 08:00:00 - 26.03.2019 08:00:00 (CET)Calvi, France (7754): precipitation: 20.03.2019 08:00:00 - 26.03.2019 08:00:00 (CET)
Date & Time tt [°C] td [°C] tt 5cm [°C] ff [km/h] ff [kn] fx [km/h] fx [kn] dd ppp [hPa] vv [km] rr [mm]
26.03.2019 08:00:00 - - - - - - - - - - -
26.03.2019 07:00:00 7,3 4,4 6,1 39 21 82 45 NNE 1014,9 6 1,2
26.03.2019 06:00:00 7,8 4,9 6,6 43 23 81 44 NNE 1013,3 3,2 1,1
26.03.2019 05:00:00 9,2 6,1 7,9 46 25 87 47 NNE 1010,9 11 3,2
26.03.2019 04:00:00 11,7 7,6 10,1 27 15 49 27 NNE 1010,0 14 1,0
26.03.2019 03:00:00 12,9 7,6 11,6 16 9 26 14 N 1009,5 8 0,0
26.03.2019 02:00:00 12,9 6,9 6,8 18 10 24 13 NNE 1009,9 30 0,0
26.03.2019 01:00:00 8,9 6,5 5,7 7 4 13 7 SE 1009,8 17 0,0
26.03.2019 00:00:00 6,7 3,5 5,8 5 3 14 8 SSE 1009,8 18 0,0
25.03.2019 23:00:00 9,5 4,9 7,2 3 2 12 7 SE 1008,4 16 0,0
25.03.2019 22:00:00 11,7 5,3 9,7 9 5 16 9 SW 1008,1 17 0,0
25.03.2019 21:00:00 11,7 5,8 10,5 9 5 33 18 ENE 1008,2 17 0,0
25.03.2019 20:00:00 13,8 5,9 13,1 18 10 52 28 SSW 1008,1 18 0,0
25.03.2019 19:00:00 14,2 6,8 13,6 26 14 42 23 SSW 1008,6 16 0,0
25.03.2019 18:00:00 15,6 7,9 15,5 17 9 39 21 SSW 1008,7 18 0,0
25.03.2019 17:00:00 18,6 8,3 21,5 22 12 37 20 SSW 1009,0 20 0,0
25.03.2019 16:00:00 20,3 8,6 24,7 20 11 33 18 S 1010,0 33 0,0
25.03.2019 15:00:00 23,0 5,9 27,4 16 9 34 18 SW 1010,7 22 0,0
25.03.2019 14:00:00 23,4 4,3 26,4 18 10 37 20 SW 1011,4 60 0,0
25.03.2019 13:00:00 23,6 3,5 24,3 22 12 35 19 SW 1012,5 60 0,0
25.03.2019 12:00:00 20,6 2,4 24,4 14 8 31 17 NNW 1013,7 60 0,0
25.03.2019 11:00:00 20,4 0,2 21,0 13 7 24 13 N 1014,3 50 0,0
25.03.2019 10:00:00 19,5 0,0 18,2 11 6 22 12 NNW 1015,1 60 0,0
25.03.2019 09:00:00 17,5 -1,7 16,5 10 5 31 17 N 1015,6 60 0,0
25.03.2019 08:00:00 15,8 -2,7 13,7 21 11 37 20 S 1015,9 60 0,0
25.03.2019 07:00:00 14,0 -2,9 11,7 16 9 34 18 S 1016,1 50 0,0
25.03.2019 06:00:00 13,6 -2,8 12,5 23 12 40 21 S 1016,2 56 0,0
25.03.2019 05:00:00 15,6 -3,4 6,0 19 10 33 18 SSW 1016,4 60 0,0
25.03.2019 04:00:00 10,0 0,3 8,2 5 3 34 18 S 1017,4 60 0,0
25.03.2019 03:00:00 10,3 -0,2 8,6 4 2 36 19 SE 1018,0 60 0,0
25.03.2019 02:00:00 12,7 1,7 6,6 14 8 30 16 S 1018,6 56 0,0
25.03.2019 01:00:00 9,3 2,2 6,6 6 3 20 11 SW 1019,0 36 0,0
25.03.2019 00:00:00 9,0 4,4 5,2 5 3 12 6 SSE 1019,6 25 0,0
24.03.2019 23:00:00 7,6 3,6 6,3 8 5 15 8 S 1020,3 26 0,0
24.03.2019 22:00:00 7,9 4,8 6,1 5 3 13 7 SSW 1020,6 26 0,0
24.03.2019 21:00:00 8,8 4,6 7,2 2 1 10 5 SSW 1020,6 26 0,0
24.03.2019 20:00:00 10,8 5,5 9,1 5 3 11 6 S 1020,8 26 0,0
24.03.2019 19:00:00 13,8 7,1 12,5 6 4 13 7 E 1020,6 34 0,0
24.03.2019 18:00:00 16,5 6,9 16,2 11 6 23 12 ENE 1020,1 45 0,0
24.03.2019 17:00:00 20,2 7,9 24,7 8 4 19 10 E 1020,0 60 0,0
24.03.2019 16:00:00 19,6 10,6 24,3 12 6 22 12 ENE 1020,5 58 0,0
24.03.2019 15:00:00 19,1 11,6 24,9 16 9 24 13 ENE 1021,1 53 0,0
24.03.2019 14:00:00 19,4 11,4 23,9 14 8 22 12 NE 1021,5 19 0,0
24.03.2019 13:00:00 20,0 10,4 24,0 13 7 24 13 NNE 1022,3 60 0,0
24.03.2019 12:00:00 21,4 7,2 24,9 15 8 23 12 NNE 1022,6 60 0,0
24.03.2019 11:00:00 20,5 5,3 20,5 11 6 18 10 NNE 1022,8 60 0,0
24.03.2019 10:00:00 19,5 5,5 17,8 8 4 13 7 N 1023,0 55 0,0
24.03.2019 09:00:00 17,7 4,3 13,9 3 2 10 6 SSW 1023,1 53 0,0
24.03.2019 08:00:00 12,0 5,2 5,9 10 5 11 6 S 1023,2 37 0,0
24.03.2019 07:00:00 6,5 2,8 4,6 8 4 16 9 S 1023,0 30 0,0
24.03.2019 06:00:00 6,9 2,8 4,7 13 7 17 9 S 1022,8 27 0,0
24.03.2019 05:00:00 7,3 2,8 5,7 6 3 15 8 SSW 1022,6 33 0,0
24.03.2019 04:00:00 6,7 2,9 5,7 12 7 15 8 S 1022,7 41 0,0
24.03.2019 03:00:00 6,9 3,0 4,8 8 4 14 7 S 1022,9 36 0,0
24.03.2019 02:00:00 6,8 2,9 4,7 4 2 14 8 SSW 1023,2 32 0,0
24.03.2019 01:00:00 6,2 2,1 4,8 5 3 11 6 S 1023,2 37 0,0
24.03.2019 00:00:00 6,9 2,6 5,4 4 2 12 6 S 1023,3 37 0,0
23.03.2019 23:00:00 6,8 2,5 5,2 5 3 11 6 S 1023,4 41 0,0
23.03.2019 22:00:00 7,8 2,5 6,0 3 2 13 7 S 1023,4 36 0,0
23.03.2019 21:00:00 8,3 2,7 7,1 3 2 14 8 S 1022,8 42 0,0
23.03.2019 20:00:00 9,5 2,3 8,1 7 4 11 6 SSW 1022,4 24 0,0
23.03.2019 19:00:00 12,0 2,4 10,9 7 4 13 7 SSW 1021,7 50 0,0
23.03.2019 18:00:00 16,1 2,1 15,8 5 3 24 13 WNW 1021,4 50 0,0
23.03.2019 17:00:00 18,0 2,7 21,3 13 7 31 17 WNW 1021,3 20 0,0
23.03.2019 16:00:00 18,1 5,0 22,0 17 9 36 19 NW 1021,4 58 0,0
23.03.2019 15:00:00 18,4 5,9 20,3 16 9 32 17 NNW 1021,7 39 0,0
23.03.2019 14:00:00 19,0 5,4 22,1 17 9 35 19 NW 1022,3 58 0,0
23.03.2019 13:00:00 18,7 7,2 20,7 17 9 32 18 NNW 1022,6 20 0,0
23.03.2019 12:00:00 18,1 5,3 21,2 20 11 35 19 NW 1022,8 20 0,0
23.03.2019 11:00:00 19,3 5,0 19,8 13 7 29 15 NNW 1023,0 60 0,0
23.03.2019 10:00:00 18,5 5,3 17,2 8 4 14 7 N 1023,3 50 0,0
23.03.2019 09:00:00 16,5 6,3 14,4 5 3 11 6 NE 1023,4 28 0,0
23.03.2019 08:00:00 11,9 5,1 5,8 8 4 14 8 S 1023,6 46 0,0
23.03.2019 07:00:00 6,1 2,5 4,5 11 6 15 8 S 1023,8 20 0,0
23.03.2019 06:00:00 6,8 3,0 4,2 12 7 16 9 S 1023,8 35 0,0
23.03.2019 05:00:00 6,4 3,2 4,0 4 2 16 8 SSE 1024,0 31 0,0
23.03.2019 04:00:00 7,5 2,8 5,3 11 6 18 10 SSW 1024,0 41 0,0
23.03.2019 03:00:00 7,6 3,8 3,8 10 5 14 7 S 1024,4 31 0,0
23.03.2019 02:00:00 6,4 3,0 4,7 4 2 14 7 S 1024,8 30 0,0
23.03.2019 01:00:00 7,5 4,6 4,8 11 6 16 9 SSW 1025,0 31 0,0
23.03.2019 00:00:00 7,2 4,3 5,5 8 4 13 7 S 1024,8 40 0,0
22.03.2019 23:00:00 8,0 4,9 6,9 10 6 18 10 SSW 1025,0 36 0,0
22.03.2019 22:00:00 7,5 4,8 6,1 13 7 16 9 S 1025,4 27 0,0
22.03.2019 21:00:00 7,9 4,7 6,7 9 5 13 7 S 1025,2 28 0,0
22.03.2019 20:00:00 9,8 5,0 8,0 3 1 10 6 SSW 1024,8 30 0,0
22.03.2019 19:00:00 11,6 5,9 10,2 4 2 11 6 S 1024,2 28 0,0
22.03.2019 18:00:00 15,4 6,4 15,1 5 3 22 12 S 1023,9 44 0,0
22.03.2019 17:00:00 16,3 7,2 19,3 13 7 26 14 WNW 1024,2 20 0,0
22.03.2019 16:00:00 17,6 7,6 20,6 11 6 34 18 WNW 1024,5 29 0,0
22.03.2019 15:00:00 16,5 8,9 20,8 18 10 36 19 NW 1025,2 19 0,0
22.03.2019 14:00:00 17,1 8,5 21,4 21 12 39 21 NW 1025,5 59 0,0
22.03.2019 13:00:00 18,3 7,1 21,6 15 8 28 15 NW 1025,8 20 0,0
22.03.2019 12:00:00 18,6 6,4 21,4 11 6 23 12 NNW 1025,9 57 0,0
22.03.2019 11:00:00 17,0 6,8 18,0 12 7 21 11 N 1026,4 60 0,0
22.03.2019 10:00:00 16,5 4,5 15,9 11 6 16 9 N 1026,3 32 0,0
22.03.2019 09:00:00 15,2 5,1 12,9 4 2 18 10 NNE 1026,0 46 0,0
22.03.2019 08:00:00 10,0 4,6 4,5 3 1 14 8 SSW 1025,9 18 0,0
22.03.2019 07:00:00 5,3 2,3 4,2 5 3 18 10 S 1025,6 36 0,0
22.03.2019 06:00:00 5,7 2,7 3,7 15 8 19 10 S 1025,3 34 0,0
22.03.2019 05:00:00 5,1 1,9 3,8 7 4 13 7 S 1025,4 39 0,0
22.03.2019 04:00:00 6,5 3,1 4,4 11 6 16 9 S 1025,5 41 0,0
22.03.2019 03:00:00 5,6 2,8 4,4 5 3 14 7 S 1025,8 40 0,0
22.03.2019 02:00:00 6,7 3,3 5,1 6 3 17 9 SW 1026,0 40 0,0
22.03.2019 01:00:00 6,1 3,4 4,8 7 4 13 7 S 1026,1 34 0,0
22.03.2019 00:00:00 6,3 3,5 5,1 6 3 14 7 S 1026,2 34 0,0
21.03.2019 23:00:00 7,6 4,0 6,6 9 5 16 9 S 1026,4 36 0,0
21.03.2019 22:00:00 7,5 3,7 6,7 9 5 14 8 SSW 1026,2 36 0,0
21.03.2019 21:00:00 8,0 4,0 6,6 8 4 14 8 S 1025,8 35 0,0
21.03.2019 20:00:00 9,3 4,3 8,2 6 4 19 10 SSW 1025,3 32 0,0
21.03.2019 19:00:00 11,5 4,7 10,5 5 3 13 7 SSE 1024,8 29 0,0
21.03.2019 18:00:00 14,6 5,1 14,3 7 4 27 15 NW 1024,3 19 0,0
21.03.2019 17:00:00 16,0 5,3 18,8 18 10 41 22 NNE 1024,2 50 0,0
21.03.2019 16:00:00 16,4 4,1 20,1 23 12 45 24 NNE 1024,2 52 0,0
21.03.2019 15:00:00 16,3 3,7 20,6 28 15 47 26 NNE 1024,5 34 0,0
21.03.2019 14:00:00 16,3 4,3 18,7 20 11 51 28 NNE 1024,9 34 0,0
21.03.2019 13:00:00 15,5 3,6 17,5 32 18 59 32 N 1025,6 33 0,0
21.03.2019 12:00:00 16,1 2,8 18,4 26 14 52 28 NNE 1025,6 32 0,0
21.03.2019 11:00:00 15,6 2,4 15,7 25 14 52 28 N 1025,8 20 0,0
21.03.2019 10:00:00 14,5 1,7 14,2 22 12 49 27 N 1025,7 20 0,0
21.03.2019 09:00:00 13,8 0,4 11,6 22 12 49 26 NNE 1025,5 38 0,0
21.03.2019 08:00:00 10,0 -0,5 4,5 5 3 21 11 SW 1025,8 55 0,0
21.03.2019 07:00:00 4,8 -2,3 3,5 10 6 18 10 S 1025,5 59 0,0
21.03.2019 06:00:00 4,6 -2,7 3,6 8 4 23 12 SSW 1025,1 60 0,0
21.03.2019 05:00:00 10,5 -3,6 4,0 19 10 40 21 N 1024,9 60 0,0
21.03.2019 04:00:00 5,5 -2,6 4,2 5 3 27 15 SW 1025,1 60 0,0
21.03.2019 03:00:00 10,0 -3,0 7,2 14 8 32 17 NNE 1025,1 60 0,0
21.03.2019 02:00:00 9,4 -3,2 7,4 14 8 26 14 N 1025,9 60 0,0
21.03.2019 01:00:00 11,2 -4,1 9,6 19 10 34 18 NNE 1026,5 60 0,0
21.03.2019 00:00:00 11,8 -4,0 4,7 18 10 42 23 NE 1026,1 60 0,0
20.03.2019 23:00:00 6,5 0,2 4,8 4 2 26 14 SSW 1026,1 60 0,0
20.03.2019 22:00:00 11,6 -0,3 10,1 18 10 33 18 N 1025,8 60 0,0
20.03.2019 21:00:00 11,5 0,3 10,2 21 11 32 18 N 1025,6 60 0,0
20.03.2019 20:00:00 11,5 0,3 10,4 17 9 36 19 N 1025,6 60 0,0
20.03.2019 19:00:00 12,4 0,8 11,7 26 14 45 24 NNE 1025,2 60 0,0
20.03.2019 18:00:00 13,2 1,5 13,0 30 16 64 35 NNE 1024,7 54 0,0
20.03.2019 17:00:00 14,0 2,9 16,2 33 18 61 33 NNE 1023,9 41 0,0
20.03.2019 16:00:00 15,2 2,7 18,3 35 19 60 32 N 1023,6 20 0,0
20.03.2019 15:00:00 15,5 1,9 19,0 34 18 55 30 NNE 1023,6 20 0,0
20.03.2019 14:00:00 15,2 2,4 17,8 39 21 61 33 NNE 1024,0 20 0,0
20.03.2019 13:00:00 15,0 2,2 17,0 36 19 61 33 NNE 1024,4 20 0,0
20.03.2019 12:00:00 14,5 2,4 16,6 40 21 56 31 N 1024,5 20 0,0
20.03.2019 11:00:00 14,5 1,4 14,8 35 19 51 28 NNE 1024,4 40 0,0
20.03.2019 10:00:00 13,4 1,1 12,7 32 18 49 26 NNE 1024,4 45 0,0
20.03.2019 09:00:00 12,1 1,1 12,1 32 18 51 27 NNE 1024,4 50 0,0
20.03.2019 08:00:00 11,2 0,3 7,9 21 12 43 23 NE 1024,5 51 0,0

tt = temperature
td = dewpoint
tt 5cm = temperature 5cm
ff = wind speed
fx = gusts
dd = wind direction
ppp = reduced air pressure
vv = visibility
rr = precipitation

Next stations